Rincon Reservation (909, 6926) Station Data

Red Flag Warning: No
Fire Weather Zone: 250
SDGE Region: North East
Lat/Lon: 33.251/-116.957

Observations

Time Wind Speed/Gust Temp(F) RH Fuel Moist Fuel Temp(F) Dewpt(F) Tmax(F) Tmin(F) Accum Precip 10-min Precip SL Press(mb)
4/30 12:00am 184 2 G 4 53° 34% - - 25° 85.6° 48.7° - - 869.0
4/29 11:50pm 197 3 G 4 54° 32% - - 25° 85.6° 48.7° - - 869.0
4/29 11:40pm 187 3 G 4 54° 33% - - 25° 85.6° 48.7° - - 869.0
4/29 11:30pm 219 2 G 3 55° 30% - - 24° 85.6° 48.7° - - 868.0
4/29 11:20pm 187 2 G 4 54° 30% - - 24° 85.6° 48.7° - - 868.0
4/29 11:10pm 189 2 G 3 55° 30% - - 24° 85.6° 48.7° - - 868.0
4/29 11:00pm 192 1 G 4 55° 30% - - 24° 85.6° 48.7° - - 868.0
4/29 10:50pm 218 2 G 4 57° 27% - - 24° 85.6° 48.7° - - 868.0
4/29 10:40pm 197 2 G 4 56° 28% - - 23° 85.6° 48.7° - - 868.0
4/29 10:30pm 142 1 G 2 56° 28% - - 24° 85.6° 48.7° - - 868.0
4/29 10:20pm 249 1 G 3 57° 28% - - 24° 85.6° 48.7° - - 868.0
4/29 10:10pm 232 1 G 3 58° 26% - - 23° 85.6° 48.7° - - 868.0
4/29 10:00pm 195 2 G 5 57° 26% - - 23° 85.6° 48.7° - - 868.0
4/29 9:50pm 215 1 G 4 57° 27% - - 23° 85.6° 48.7° - - 869.0
4/29 9:40pm 170 0 G 2 58° 26% - - 23° 85.6° 48.7° - - 869.0
4/29 9:30pm 213 1 G 2 59° 25% - - 23° 85.6° 48.7° - - 869.0
4/29 9:20pm 249 2 G 4 59° 25% - - 23° 85.6° 48.7° - - 869.0
4/29 9:10pm 198 2 G 3 59° 25% - - 23° 85.6° 48.7° - - 869.0
4/29 9:00pm 167 2 G 2 60° 25% - - 23° 85.6° 48.7° - - 870.0
4/29 8:50pm 203 2 G 3 61° 23% - - 23° 85.6° 48.7° - - 870.0
4/29 8:40pm 229 1 G 3 61° 23% - - 24° 85.6° 48.7° - - 870.0
4/29 8:30pm 232 1 G 3 63° 21% - - 23° 85.6° 48.7° - - 871.0
4/29 8:20pm 189 2 G 4 63° 21% - - 23° 85.6° 48.7° - - 871.0
4/29 8:10pm 252 4 G 5 65° 19% - - 22° 85.6° 48.7° - - 871.0
4/29 8:00pm 228 3 G 6 65° 20% - - 23° 85.6° 48.7° - - 872.0
4/29 7:50pm 220 4 G 5 67° 18% - - 22° 85.6° 48.7° - - 872.0
4/29 7:40pm 202 3 G 4 69° 15% - - 19° 85.6° 48.7° - - 872.0
4/29 7:30pm 178 1 G 3 70° 15% - - 20° 85.6° 48.7° - - 873.0
4/29 7:20pm 174 2 G 3 71° 14% - - 19° 85.6° 48.7° - - 874.0
4/29 7:10pm 140 2 G 3 72° 14% - - 19° 85.6° 48.7° - - 874.0
4/29 7:00pm 197 2 G 5 73° 13% - - 19° 85.6° 48.7° - - 875.0
4/29 6:50pm 225 3 G 7 74° 12% - - 18° 85.6° 48.7° - - 875.0
4/29 6:40pm 245 4 G 9 75° 12% - - 18° 85.6° 48.7° - - 876.0
4/29 6:30pm 266 4 G 9 75° 11% - - 17° 85.6° 48.7° - - 876.0
4/29 6:20pm 245 5 G 10 75° 12% - - 19° 85.6° 48.7° - - 877.0
4/29 6:10pm 267 7 G 13 76° 13% - - 21° 85.6° 48.7° - - 878.0
4/29 6:00pm 261 5 G 9 78° 12% - - 22° 85.6° 48.7° - - 878.0
4/29 5:50pm 249 5 G 10 78° 12% - - 21° 85.6° 48.7° - - 878.0
4/29 5:40pm 270 6 G 11 78° 12% - - 20° 85.6° 48.7° - - 878.0
4/29 5:30pm 248 6 G 13 79° 12% - - 21° 85.6° 48.7° - - 879.0
4/29 5:20pm 256 6 G 11 80° 11% - - 21° 85.6° 48.7° - - 879.0
4/29 5:10pm 235 5 G 11 81° 11% - - 21° 85.6° 48.7° - - 879.0
4/29 5:00pm 254 6 G 10 80° 10% - - 19° 85.6° 48.7° - - 879.0
4/29 4:50pm 262 6 G 13 81° 10% - - 19° 85.6° 48.7° - - 879.0
4/29 4:40pm 235 6 G 12 81° 10% - - 18° 85.6° 48.7° - - 879.0
4/29 4:30pm 248 6 G 10 81° 9% - - 17° 85.6° 48.7° - - 879.0
4/29 4:20pm 241 5 G 12 82° 9% - - 17° 85.6° 48.7° - - 879.0
4/29 4:10pm 236 7 G 13 82° 9% - - 18° 85.6° 48.7° - - 879.0
4/29 4:00pm 227 8 G 17 82° 10% - - 19° 85.6° 48.7° - - 880.0
4/29 3:50pm 212 8 G 15 82° 10% - - 19° 85.6° 48.7° - - 880.0
4/29 3:40pm 234 7 G 13 82° 9% - - 18° 85.6° 48.7° - - 880.0
4/29 3:30pm 179 10 G 17 82° 10% - - 19° 85.6° 48.7° - - 880.0
4/29 3:20pm 206 11 G 19 82° 9% - - 19° 85.6° 48.7° - - 881.0
4/29 3:10pm 197 11 G 21 82° 10% - - 20° 85.6° 48.7° - - 881.0
4/29 3:00pm 218 9 G 20 84° 9% - - 20° 85.6° 48.7° - - 881.0
4/29 2:50pm 212 4 G 15 85° 6% - - 12° 85.6° 48.7° - - 880.0
4/29 2:40pm 222 5 G 10 85° 6% - - 12° 85.4° 48.7° - - 880.0
4/29 2:30pm 226 3 G 10 84° 6% - - 10° 84.8° 48.7° - - 880.0
4/29 2:20pm 101 3 G 9 83° 6% - - 84.2° 48.7° - - 879.0
4/29 2:10pm 102 6 G 10 83° 6% - - 84.2° 48.7° - - 879.0
4/29 2:00pm 87 6 G 14 82° 6% - - 84.2° 48.7° - - 879.0
4/29 1:50pm 188 3 G 8 83° 6% - - 84.2° 48.7° - - 879.0
4/29 1:40pm 238 4 G 8 83° 6% - - 84.2° 48.7° - - 879.0
4/29 1:30pm 229 5 G 9 83° 6% - - 84.2° 48.7° - - 879.0
4/29 1:20pm 210 4 G 9 84° 6% - - 10° 84.2° 48.7° - - 879.0
4/29 1:10pm 345 4 G 7 81° 7% - - 10° 83.1° 48.7° - - 878.0
4/29 1:00pm 349 3 G 10 82° 6% - - 10° 83.1° 48.7° - - 878.0
4/29 12:50pm 295 5 G 11 81° 7% - - 11° 83.1° 48.7° - - 878.0
4/29 12:40pm 264 6 G 12 80° 7% - - 10° 83.1° 48.7° - - 878.0
4/29 12:30pm 241 5 G 13 82° 7% - - 11° 83.1° 48.7° - - 878.0
4/29 12:20pm 237 5 G 9 81° 7% - - 10° 81.4° 48.7° - - 877.0
4/29 12:10pm 90 3 G 6 80° 7% - - 10° 80.6° 48.7° - - 877.0
4/29 12:00pm 76 2 G 5 80° 7% - - 10° 80.2° 48.7° - - 876.0
4/29 11:50am 95 2 G 9 79° 7% - - 10° 80° 48.7° - - 876.0
4/29 11:40am 71 4 G 10 79° 7% - - 10° 79.6° 48.7° - - 875.0
4/29 11:30am 56 5 G 11 78° 7% - - 10° 79.6° 48.7° - - 875.0
4/29 11:20am 55 6 G 13 77° 7% - - 10° 78° 48.7° - - 875.0
4/29 11:10am 100 6 G 9 78° 7% - - 77.9° 48.7° - - 874.0
4/29 11:00am 59 7 G 12 77° 7% - - 10° 77.7° 48.7° - - 874.0
4/29 10:50am 72 7 G 15 77° 7% - - 77.6° 48.7° - - 874.0
4/29 10:40am 64 6 G 13 77° 7% - - 10° 77.6° 48.7° - - 873.0
4/29 10:30am 92 7 G 14 77° 7% - - 77° 48.7° - - 873.0
4/29 10:20am 76 5 G 11 76° 8% - - 10° 76.7° 48.7° - - 872.0
4/29 10:10am 108 4 G 8 75° 8% - - 10° 76.1° 48.7° - - 872.0
4/29 10:00am 80 6 G 11 75° 8% - - 10° 75.1° 48.7° - - 871.0
4/29 9:50am 77 4 G 10 74° 8% - - 10° 74.9° 48.7° - - 871.0
4/29 9:40am 61 6 G 12 73° 9% - - 12° 74° 48.7° - - 870.0
4/29 9:30am 71 6 G 13 74° 9% - - 12° 74° 48.7° - - 870.0
4/29 9:20am 154 3 G 6 73° 9% - - 12° 73.9° 48.7° - - 869.0
4/29 9:10am 212 2 G 6 73° 10% - - 12° 73.9° 48.7° - - 868.0
4/29 9:00am 179 4 G 6 71° 11% - - 14° 72° 48.7° - - 868.0
4/29 8:50am 175 7 G 12 70° 12% - - 14° 70.8° 48.7° - - 868.0
4/29 8:40am 143 5 G 7 69° 12% - - 14° 69.5° 48.7° - - 867.0
4/29 8:30am 153 6 G 7 68° 13% - - 16° 68.7° 48.7° - - 867.0
4/29 8:20am 178 6 G 8 68° 13% - - 16° 68.7° 48.7° - - 867.0
4/29 8:10am 169 4 G 6 67° 13% - - 15° 67.9° 48.7° - - 866.0
4/29 8:00am 161 4 G 7 65° 15% - - 17° 66.4° 48.7° - - 866.0
4/29 7:50am 169 5 G 9 64° 16% - - 17° 65° 48.7° - - 865.0
4/29 7:40am 196 6 G 8 64° 15% - - 15° 64.3° 48.7° - - 864.0
4/29 7:30am 180 6 G 9 61° 16% - - 15° 62.7° 48.7° - - 864.0
4/29 7:20am 180 6 G 9 60° 19% - - 17° 61.9° 48.7° - - 864.0
4/29 7:10am 192 6 G 9 57° 21% - - 17° 61.9° 48.7° - - 865.0
4/29 7:00am 189 5 G 7 58° 19% - - 16° 61.9° 48.7° - - 864.0
4/29 6:50am 213 3 G 5 58° 19% - - 15° 61.9° 48.7° - - 864.0
4/29 6:40am 211 2 G 4 56° 19% - - 15° 61.9° 48.7° - - 863.0
4/29 6:30am 192 3 G 10 56° 20% - - 15° 61.9° 48.7° - - 864.0
4/29 6:20am 221 7 G 11 56° 19% - - 15° 61.9° 48.7° - - 863.0
4/29 6:10am 216 7 G 9 58° 17% - - 13° 61.9° 48.7° - - 863.0
4/29 6:00am 188 5 G 7 57° 18% - - 13° 61.9° 48.7° - - 863.0
4/29 5:50am 212 3 G 7 56° 19% - - 14° 61.9° 48.7° - - 863.0
4/29 5:40am 198 4 G 8 56° 19% - - 15° 61.9° 48.7° - - 863.0
4/29 5:30am 199 4 G 7 56° 21% - - 16° 61.9° 48.7° - - 864.0
4/29 5:20am 198 5 G 8 55° 22% - - 17° 61.9° 48.7° - - 864.0
4/29 5:10am 203 5 G 8 54° 23% - - 17° 61.9° 48.7° - - 864.0
4/29 5:00am 201 4 G 6 55° 23% - - 18° 61.9° 48.7° - - 865.0
4/29 4:50am 210 3 G 5 56° 21% - - 17° 61.9° 48.7° - - 864.0
4/29 4:40am 185 2 G 7 57° 21% - - 17° 61.9° 48.7° - - 864.0
4/29 4:30am 202 4 G 6 58° 19% - - 16° 61.9° 48.7° - - 864.0
4/29 4:20am 194 2 G 5 58° 20% - - 16° 61.9° 48.7° - - 864.0
4/29 4:10am 114 1 G 3 58° 20% - - 18° 61.9° 48.7° - - 864.0
4/29 4:00am 192 2 G 4 57° 23% - - 20° 61.9° 48.7° - - 865.0
4/29 3:50am 211 4 G 5 57° 22% - - 19° 61.9° 48.7° - - 865.0
4/29 3:40am 199 3 G 5 56° 25% - - 20° 61.9° 48.7° - - 865.0
4/29 3:30am 208 3 G 4 57° 25% - - 21° 61.9° 48.7° - - 865.0
4/29 3:20am 165 3 G 5 59° 24% - - 22° 61.9° 48.7° - - 865.0
4/29 3:10am 257 3 G 6 59° 23% - - 21° 61.9° 48.7° - - 865.0
4/29 3:00am 144 3 G 5 52° 41% - - 29° 54.4° 48.7° - - 871.0
4/29 2:50am 228 3 G 7 53° 41% - - 30° 54.4° 48.7° - - 872.0
4/29 2:40am 203 2 G 4 52° 48% - - 33° 54.4° 48.7° - - 874.0
4/29 2:30am 216 2 G 5 52° 49% - - 33° 54.4° 48.7° - - 874.0
4/29 2:20am 204 3 G 5 52° 52% - - 35° 54.4° 48.7° - - 875.0
4/29 2:10am 191 4 G 8 51° 54% - - 35° 54.4° 48.7° - - 876.0
4/29 2:00am 152 3 G 7 50° 60% - - 37° 54.4° 48.7° - - 879.0
4/29 1:50am 202 3 G 5 50° 61% - - 38° 54.4° 49.3° - - 879.0
4/29 1:40am 226 2 G 5 51° 61% - - 38° 54.4° 50° - - 879.0
4/29 1:30am 208 3 G 5 51° 63% - - 39° 54.4° 50° - - 880.0
4/29 1:20am 248 2 G 5 51° 63% - - 39° 54.4° 50° - - 880.0
4/29 1:10am 210 4 G 6 50° 65% - - 39° 54.4° 50° - - 881.0
4/29 1:00am 192 2 G 4 51° 64% - - 39° 54.4° 50.2° - - 880.0
4/29 12:50am 43 2 G 3 51° 64% - - 39° 54.4° 50.3° - - 880.0
4/29 12:40am 246 1 G 4 52° 61% - - 39° 54.4° 51.1° - - 880.0
4/29 12:30am 326 1 G 4 52° 61% - - 39° 54.4° 51.6° - - 880.0
4/29 12:20am 62 2 G 4 52° 60% - - 39° 54.4° 51.7° - - 879.0
4/29 12:10am 256 2 G 5 53° 59% - - 39° 54.4° 52.5° - - 879.0
4/29 12:00am 181 3 G 4 53° 58% - - 39° 79.2° 46.9° - - 879.0
4/28 11:50pm 242 4 G 7 53° 59% - - 39° 79.2° 46.9° - - 879.0
4/28 11:40pm 213 2 G 5 52° 60% - - 39° 79.2° 46.9° - - 880.0
4/28 11:30pm 193 2 G 4 53° 59% - - 39° 79.2° 46.9° - - 879.0
4/28 11:20pm 121 1 G 4 53° 57% - - 39° 79.2° 46.9° - - 879.0
4/28 11:10pm 222 2 G 5 54° 56% - - 39° 79.2° 46.9° - - 879.0
4/28 11:00pm 221 2 G 3 55° 55% - - 39° 79.2° 46.9° - - 878.0
4/28 10:50pm 209 2 G 3 55° 54% - - 39° 79.2° 46.9° - - 878.0
4/28 10:40pm 167 2 G 3 55° 55% - - 39° 79.2° 46.9° - - 879.0
4/28 10:30pm 246 1 G 2 56° 51% - - 38° 79.2° 46.9° - - 878.0
4/28 10:20pm 195 2 G 2 57° 49% - - 38° 79.2° 46.9° - - 877.0
4/28 10:10pm 190 1 G 2 57° 49% - - 38° 79.2° 46.9° - - 878.0
4/28 10:00pm 195 1 G 2 58° 49% - - 38° 79.2° 46.9° - - 877.0
4/28 9:50pm 227 1 G 2 59° 45% - - 38° 79.2° 46.9° - - 877.0
4/28 9:40pm 197 2 G 3 60° 45% - - 38° 79.2° 46.9° - - 877.0
4/28 9:30pm 236 1 G 2 60° 43% - - 38° 79.2° 46.9° - - 877.0
4/28 9:20pm 232 1 G 3 61° 42% - - 38° 79.2° 46.9° - - 877.0
4/28 9:10pm 204 2 G 3 62° 40% - - 38° 79.2° 46.9° - - 876.0
4/28 9:00pm 161 4 G 7 63° 38% - - 37° 79.2° 46.9° - - 876.0
4/28 8:50pm 187 1 G 5 64° 37% - - 37° 79.2° 46.9° - - 876.0
4/28 8:40pm 54 2 G 4 64° 37% - - 37° 79.2° 46.9° - - 876.0
4/28 8:30pm 183 6 G 12 64° 36% - - 37° 79.2° 46.9° - - 876.0
4/28 8:20pm 197 8 G 11 64° 36% - - 37° 79.2° 46.9° - - 876.0
4/28 8:10pm 196 6 G 11 65° 36% - - 37° 79.2° 46.9° - - 876.0
4/28 8:00pm 219 6 G 10 65° 36% - - 37° 79.2° 46.9° - - 877.0
4/28 7:50pm 225 7 G 10 66° 35% - - 37° 79.2° 46.9° - - 877.0
4/28 7:40pm 199 7 G 10 66° 34% - - 37° 79.2° 46.9° - - 877.0
4/28 7:30pm 200 7 G 11 67° 33% - - 37° 79.2° 46.9° - - 877.0
4/28 7:20pm 197 5 G 10 68° 30% - - 36° 79.2° 46.9° - - 877.0
4/28 7:10pm 205 4 G 6 69° 29% - - 35° 79.2° 46.9° - - 877.0
4/28 7:00pm 223 4 G 6 70° 27% - - 35° 79.2° 46.9° - - 877.0
4/28 6:50pm 226 4 G 6 71° 27% - - 35° 79.2° 46.9° - - 877.0
4/28 6:40pm 215 4 G 7 71° 26% - - 35° 79.2° 46.9° - - 878.0
4/28 6:30pm 216 5 G 9 72° 25% - - 34° 79.2° 46.9° - - 878.0
4/28 6:20pm 209 5 G 8 72° 25% - - 34° 79.2° 46.9° - - 878.0
4/28 6:10pm 214 4 G 7 73° 23% - - 34° 79.2° 46.9° - - 878.0
4/28 6:00pm 217 6 G 9 74° 22% - - 33° 79.2° 46.9° - - 878.0